Location: Bothell
(47.7630°N, 122.2040°W)
Time: 20:38:17
(UTC-07:00)

Amateur Radio Satellites - All Passes

Search period start: 17 September 2014 20:08
Search period end: 18 September 2014 20:08
Location: Bothell, 47.7630°N, 122.2040°W

Satellite Date Start Highest point End Downlink Frequencies (MHz)
Time Altitude Azimuth
PCSat 17 Sep 20:31:46 20:36:22 27° 39° (NE) 20:40:56 145.825 MHz
HO-68 17 Sep 20:32:45 20:39:40 57° 65° (ENE) 20:46:38 435.675 MHz FM
KITSAT 1 17 Sep 20:49:31 20:57:37 82° 123° (ESE) 21:05:44 435.175 FM
Oscar 11 17 Sep 21:00:11 21:03:43 25° 64° (ENE) 21:07:16 145.825 FM, Beacon 2401.500 USB
UKube-1 17 Sep 21:14:07 21:18:15 46° 69° (ENE) 21:22:25 145.840 MHz, 145.915 MHz
Saudisat 1A 17 Sep 21:22:07 21:24:00 12° 340° (NNW) 21:25:52 436.775 MHz
STRAND 1 17 Sep 21:46:02 21:49:32 19° 302° (WNW) 21:53:03 ?
Sapphire 17 Sep 21:47:32 21:53:00 72° 54° (NE) 21:58:25 437.095 MHz 1200 baud AX-25 AFSK
PCSat 17 Sep 22:14:52 22:20:18 71° 240° (WSW) 22:25:40 145.825 MHz
FUNcube-1 17 Sep 22:19:35 22:23:56 62° 73° (ENE) 22:28:25 145.950 - 145.970 MHz USB
HO-68 17 Sep 22:21:24 22:27:43 33° 265° (W) 22:34:05 435.675 MHz FM
Oscar 11 17 Sep 22:35:37 22:39:43 39° 262° (W) 22:43:51 145.825 FM, Beacon 2401.500 USB
KITSAT 1 17 Sep 22:46:36 22:53:54 35° 327° (NNW) 23:01:13 435.175 FM
UKube-1 17 Sep 22:51:28 22:54:41 20° 267° (W) 22:57:56 145.840 MHz, 145.915 MHz
SO-50 17 Sep 23:05:58 23:10:02 35° 118° (ESE) 23:14:12 436.795 FM
Sapphire 17 Sep 23:31:57 23:35:52 21° 253° (WSW) 23:39:47 437.095 MHz 1200 baud AX-25 AFSK
AO-40 17 Sep 23:43:59 00:13:57 11° 112° (ESE) 00:38:50 Beacon 2401.320
FUNcube-1 17 Sep 23:58:05 00:00:47 16° 271° (W) 00:03:32 145.950 - 145.970 MHz USB
PCSat 18 Sep 00:01:12 00:02:43 11° 259° (WSW) 00:04:13 145.825 MHz
Saudisat 1A 18 Sep 00:43:55 00:47:00 18° 30° (NNE) 00:50:04 436.775 MHz
KITSAT 1 18 Sep 00:46:10 00:52:02 21° 356° (N) 00:57:55 435.175 FM
SO-50 18 Sep 00:46:18 00:50:33 39° 318° (NW) 00:54:56 436.795 FM
Oscar 10/S400 18 Sep 00:52:41 01:45:47 41° 212° (SSW) 07:24:08 145.825 - 145.975 CW/USB, Beacon 145.810 USB
UOSAT-12 18 Sep 00:54:06 00:58:20 36° 118° (ESE) 01:02:39 437.025 FM, 437.400 FM
Oscar 16 18 Sep 01:49:43 01:53:49 23° 92° (E) 01:57:52 437.025 USB, Beacon 2401.1428
JAS-1B 18 Sep 01:57:44 02:00:41 14° 85° (E) 02:03:35 435.800 - 435.900 CW/SSB
AO-Echo 18 Sep 02:17:28 02:20:56 20° 92° (E) 02:24:28 ?
Saudisat 1A 18 Sep 02:22:51 02:27:18 77° 51° (NE) 02:31:43 436.775 MHz
ITAMSAT 1 18 Sep 02:29:22 02:33:26 23° 92° (E) 02:37:28 435.822 SSB
SO-50 18 Sep 02:30:08 02:32:25 13° 341° (NNW) 02:34:44 436.795 FM
Uribyol 2 18 Sep 02:33:51 02:38:12 26° 93° (E) 02:42:32 436.500 FM
UOSAT-12 18 Sep 02:34:05 02:38:28 39° 318° (NW) 02:42:56 437.025 FM, 437.400 FM
KITSAT 1 18 Sep 02:43:40 02:50:30 29° 25° (NNE) 02:57:17 435.175 FM
TMSAT-1 18 Sep 02:46:45 02:48:44 12° 85° (E) 02:50:43 436.925 FM
Oscar 19 18 Sep 02:49:46 02:54:58 72° 103° (ESE) 03:00:07 437.125 CW, 437.150 USB
AO-27 18 Sep 03:03:19 03:08:18 44° 99° (E) 03:13:16 436.795 MHz FM
ISS 18 Sep 03:23:43 03:25:55 17° 137° (SE) 03:28:08 145.800 FM
Oscar 16 18 Sep 03:28:26 03:33:29 54° 291° (WNW) 03:38:30 437.025 USB, Beacon 2401.1428
OPAL 18 Sep 03:30:37 03:34:37 23° 57° (ENE) 03:38:39 ?
AO-7 18 Sep 03:35:23 03:37:37 11° 82° (E) 03:39:50 29.400 - 29.500 MHz
RS-15 18 Sep 03:36:45 03:44:45 24° 101° (E) 03:52:38 29.354 - 29.394 USB, Beacon 29.352 USB
Gurwin Techsat 1B 18 Sep 03:46:02 03:51:14 52° 100° (E) 03:56:24 435.225 FM
JAS-1B 18 Sep 03:46:28 03:52:25 85° 287° (WNW) 03:58:05 435.800 - 435.900 CW/SSB
AO-Echo 18 Sep 03:55:22 04:00:04 57° 289° (WNW) 04:04:53 ?
Saudisat 1A 18 Sep 04:03:46 04:06:19 15° 249° (WSW) 04:08:53 436.775 MHz
ITAMSAT 1 18 Sep 04:08:10 04:13:16 56° 290° (WNW) 04:18:21 435.822 SSB
Uribyol 2 18 Sep 04:12:54 04:17:55 49° 292° (WNW) 04:22:55 436.500 FM
SO-50 18 Sep 04:14:16 04:15:06 10° 7° (N) 04:15:56 436.795 FM
UOSAT-12 18 Sep 04:17:30 04:19:55 14° 341° (NNW) 04:22:21 437.025 FM, 437.400 FM
TMSAT-1 18 Sep 04:24:10 04:29:30 81° 104° (ESE) 04:34:49 436.925 FM
Oscar 19 18 Sep 04:30:11 04:33:46 19° 302° (WNW) 04:37:21 437.125 CW, 437.150 USB
KITSAT 1 18 Sep 04:39:14 04:47:21 73° 51° (NE) 04:55:25 435.175 FM
AO-27 18 Sep 04:43:11 04:47:39 30° 297° (WNW) 04:52:08 436.795 MHz FM
ISS 18 Sep 04:58:54 05:02:14 84° 155° (SSE) 05:05:35 145.800 FM
Uosat F 18 Sep 05:03:56 05:08:34 36° 97° (E) 05:13:10 435.120 FM
OPAL 18 Sep 05:07:57 05:13:05 62° 256° (WSW) 05:18:17 ?
AO-7 18 Sep 05:24:07 05:32:17 58° 103° (ESE) 05:40:24 29.400 - 29.500 MHz
Gurwin Techsat 1B 18 Sep 05:26:33 05:30:55 26° 298° (WNW) 05:35:16 435.225 FM
JAS-1B 18 Sep 05:38:49 05:42:08 16° 310° (NW) 05:45:20 435.800 - 435.900 CW/SSB
RS-15 18 Sep 05:44:23 05:55:24 84° 124° (SE) 06:06:23 29.354 - 29.394 USB, Beacon 29.352 USB
STRAND 1 18 Sep 05:47:33 05:51:30 23° 60° (ENE) 05:55:28 ?
ITAMSAT 1 18 Sep 05:51:11 05:51:41 10° 310° (NW) 05:52:11 435.822 SSB
SO-50 18 Sep 05:53:52 05:57:29 21° 31° (NNE) 06:01:08 436.795 FM
UOSAT-12 18 Sep 06:01:16 06:02:10 10° 6° (N) 06:03:03 437.025 FM, 437.400 FM
TMSAT-1 18 Sep 06:05:19 06:08:48 18° 303° (WNW) 06:12:16 436.925 FM
JAS-2 18 Sep 06:19:16 06:24:33 33° 96° (E) 06:30:24 435.800 - 435.900 CW/SSB, 435.910 FM
KITSAT 1 18 Sep 06:35:20 06:42:08 31° 252° (WSW) 06:48:56 435.175 FM
ISS 18 Sep 06:35:58 06:39:10 42° 354° (N) 06:42:22 145.800 FM
Uosat F 18 Sep 06:42:49 06:47:19 34° 295° (WNW) 06:51:47 435.120 FM
Hamsat 18 Sep 07:15:52 07:20:11 90° 101° (E) 07:24:25 145.90 MHz
AO-7 18 Sep 07:17:18 07:24:50 41° 304° (NW) 07:32:21 29.400 - 29.500 MHz
STRAND 1 18 Sep 07:25:21 07:30:20 56° 259° (W) 07:35:22 ?
SO-50 18 Sep 07:33:56 07:38:45 84° 52° (NE) 07:43:37 436.795 FM
UOSAT-12 18 Sep 07:40:35 07:44:09 20° 30° (NNE) 07:47:41 437.025 FM, 437.400 FM
MaSat-1 18 Sep 07:50:18 07:50:36 10° 99° (E) 07:50:55 437.345 MHz
RS-15 18 Sep 07:58:44 08:08:59 43° 333° (NNW) 08:19:19 29.354 - 29.394 USB, Beacon 29.352 USB
JAS-2 18 Sep 08:04:16 08:09:46 47° 292° (WNW) 08:15:56 435.800 - 435.900 CW/SSB, 435.910 FM
ISS 18 Sep 08:12:58 08:16:15 54° 15° (NNE) 08:19:32 145.800 FM
SO-67 18 Sep 08:15:41 08:19:08 64° 101° (E) 08:22:33 435.3500 MHz FM
Hamsat 18 Sep 08:53:54 08:55:27 12° 302° (WNW) 08:57:01 145.90 MHz
AO-7 18 Sep 09:12:15 09:15:24 13° 328° (NNW) 09:18:34 29.400 - 29.500 MHz
SO-50 18 Sep 09:15:51 09:18:43 16° 250° (WSW) 09:21:37 436.795 FM
UOSAT-12 18 Sep 09:20:15 09:25:02 82° 52° (NE) 09:29:43 437.025 FM, 437.400 FM
MaSat-1 18 Sep 09:21:32 09:26:32 68° 116° (ESE) 09:31:26 437.345 MHz
HO-68 18 Sep 09:44:08 09:50:54 42° 98° (E) 09:57:37 435.675 MHz FM
ISS 18 Sep 09:49:46 09:52:56 41° 214° (SSW) 09:56:05 145.800 FM
SO-67 18 Sep 09:50:43 09:51:40 11° 299° (WNW) 09:52:37 435.3500 MHz FM
FUNcube-1 18 Sep 10:08:11 10:09:03 10° 85° (E) 10:09:55 145.950 - 145.970 MHz USB
RS-15 18 Sep 10:15:20 10:24:55 33° 7° (N) 10:34:41 29.354 - 29.394 USB, Beacon 29.352 USB
Oscar 11 18 Sep 10:19:51 10:23:40 29° 95° (E) 10:27:27 145.825 FM, Beacon 2401.500 USB
UKube-1 18 Sep 10:34:51 10:39:08 52° 101° (E) 10:43:23 145.840 MHz, 145.915 MHz
MaSat-1 18 Sep 10:59:41 11:03:44 24° 315° (NW) 11:07:40 437.345 MHz
UOSAT-12 18 Sep 11:01:47 11:04:33 16° 250° (WSW) 11:07:18 437.025 FM, 437.400 FM
HO-68 18 Sep 11:31:54 11:38:40 46° 298° (WNW) 11:45:25 435.675 MHz FM
FUNcube-1 18 Sep 11:41:30 11:46:10 84° 103° (ESE) 11:50:47 145.950 - 145.970 MHz USB
Oscar 11 18 Sep 11:55:59 11:59:52 32° 293° (WNW) 12:03:43 145.825 FM, Beacon 2401.500 USB
UKube-1 18 Sep 12:11:52 12:14:59 20° 299° (WNW) 12:18:05 145.840 MHz, 145.915 MHz
RS-15 18 Sep 12:29:26 12:40:14 56° 39° (NE) 12:51:23 29.354 - 29.394 USB, Beacon 29.352 USB
Oscar 19 18 Sep 12:32:18 12:36:20 23° 60° (ENE) 12:40:24 437.125 CW, 437.150 USB
Sapphire 18 Sep 12:33:15 12:37:58 32° 111° (ESE) 12:42:42 437.095 MHz 1200 baud AX-25 AFSK
JAS-1B 18 Sep 12:44:48 12:51:20 28° 58° (ENE) 12:57:02 435.800 - 435.900 CW/SSB
AO-27 18 Sep 12:48:12 12:51:16 16° 55° (NE) 12:54:19 436.795 MHz FM
PCSat 18 Sep 12:59:43 13:04:58 54° 117° (ESE) 13:10:16 145.825 MHz
Oscar 16 18 Sep 13:09:43 13:14:40 47° 68° (ENE) 13:19:38 437.025 USB, Beacon 2401.1428
FUNcube-1 18 Sep 13:19:26 13:21:55 15° 302° (WNW) 13:24:23 145.950 - 145.970 MHz USB
HO-68 18 Sep 13:22:05 13:24:40 12° 320° (NW) 13:27:16 435.675 MHz FM
Gurwin Techsat 1B 18 Sep 13:32:55 13:36:33 19° 58° (ENE) 13:40:12 435.225 FM
AO-Echo 18 Sep 13:33:43 13:38:01 35° 67° (ENE) 13:42:17 ?
ITAMSAT 1 18 Sep 13:50:30 13:55:26 47° 68° (ENE) 14:00:23 435.822 SSB
Uribyol 2 18 Sep 13:54:55 13:59:56 54° 69° (ENE) 14:05:00 436.500 FM
TMSAT-1 18 Sep 14:09:47 14:14:12 28° 62° (ENE) 14:18:37 436.925 FM
Oscar 19 18 Sep 14:10:12 14:15:19 58° 259° (W) 14:20:28 437.125 CW, 437.150 USB
Sapphire 18 Sep 14:15:58 14:21:12 49° 311° (NW) 14:26:29 437.095 MHz 1200 baud AX-25 AFSK
AO-27 18 Sep 14:24:54 14:30:04 89° 254° (WSW) 14:35:18 436.795 MHz FM
JAS-1B 18 Sep 14:32:53 14:41:29 77° 256° (WSW) 14:48:39 435.800 - 435.900 CW/SSB
AO-7 18 Sep 14:36:18 14:42:59 29° 49° (NE) 14:49:41 29.400 - 29.500 MHz
RS-15 18 Sep 14:42:06 14:52:48 58° 244° (WSW) 15:03:57 29.354 - 29.394 USB, Beacon 29.352 USB
PCSat 18 Sep 14:43:50 14:48:40 32° 318° (NW) 14:53:33 145.825 MHz
Uosat F 18 Sep 14:45:35 14:47:30 12° 53° (NE) 14:49:25 435.120 FM
Oscar 16 18 Sep 14:49:52 14:54:13 27° 267° (W) 14:58:37 437.025 USB, Beacon 2401.1428
Gurwin Techsat 1B 18 Sep 15:10:38 15:15:56 76° 257° (WSW) 15:21:17 435.225 FM
AO-Echo 18 Sep 15:12:42 15:16:51 30° 265° (W) 15:20:59 ?
ITAMSAT 1 18 Sep 15:30:51 15:35:09 26° 266° (W) 15:39:29 435.822 SSB
Uribyol 2 18 Sep 15:35:42 15:39:45 23° 268° (W) 15:43:50 436.500 FM
TMSAT-1 18 Sep 15:48:46 15:53:53 49° 261° (W) 15:59:01 436.925 FM
Sapphire 18 Sep 16:02:50 16:05:59 15° 334° (NNW) 16:09:08 437.095 MHz 1200 baud AX-25 AFSK
AO-27 18 Sep 16:07:59 16:10:21 13° 273° (W) 16:12:43 436.795 MHz FM
Uosat F 18 Sep 16:20:27 16:25:25 71° 72° (ENE) 16:30:25 435.120 FM
AO-7 18 Sep 16:26:36 16:34:57 85° 251° (WSW) 16:43:18 29.400 - 29.500 MHz
JAS-1B 18 Sep 16:27:58 16:32:54 17° 272° (W) 16:37:26 435.800 - 435.900 CW/SSB
PCSat 18 Sep 16:31:47 16:33:53 12° 342° (NNW) 16:35:58 145.825 MHz
JAS-2 18 Sep 16:37:40 16:41:11 19° 57° (ENE) 16:44:42 435.800 - 435.900 CW/SSB, 435.910 FM
Hamsat 18 Sep 16:39:06 16:41:07 13° 59° (ENE) 16:43:07 145.90 MHz
Gurwin Techsat 1B 18 Sep 16:55:24 16:56:49 11° 275° (W) 16:58:15 435.225 FM
RS-15 18 Sep 16:58:16 17:02:35 13° 267° (W) 17:06:58 29.354 - 29.394 USB, Beacon 29.352 USB
OPAL 18 Sep 17:14:56 17:19:16 26° 96° (E) 17:23:32 ?
MaSat-1 18 Sep 17:35:21 17:39:08 33° 50° (NE) 17:42:25 437.345 MHz
Uosat F 18 Sep 18:01:36 18:04:44 17° 270° (W) 18:07:53 435.120 FM
Saudisat 1A 18 Sep 18:11:27 18:15:47 60° 124° (ESE) 18:20:09 436.775 MHz
Hamsat 18 Sep 18:12:04 18:16:27 84° 257° (WSW) 18:20:50 145.90 MHz
PCSat 18 Sep 18:19:23 18:19:59 10° 9° (N) 18:20:34 145.825 MHz
JAS-2 18 Sep 18:20:34 18:25:48 70° 257° (WSW) 18:31:00 435.800 - 435.900 CW/SSB, 435.910 FM
AO-7 18 Sep 18:23:10 18:28:55 20° 272° (W) 18:34:42 29.400 - 29.500 MHz
HO-68 18 Sep 18:34:29 18:36:55 12° 40° (NE) 18:39:21 435.675 MHz FM
SO-67 18 Sep 18:51:50 18:55:00 35° 71° (ENE) 18:58:12 435.3500 MHz FM
OPAL 18 Sep 18:53:23 18:58:23 48° 294° (WNW) 19:03:17 ?
KITSAT 1 18 Sep 19:12:21 19:19:02 30° 107° (ESE) 19:25:43 435.175 FM
MaSat-1 18 Sep 19:12:31 19:15:41 24° 254° (WSW) 19:18:30 437.345 MHz
STRAND 1 18 Sep 19:32:28 19:37:15 38° 97° (E) 19:42:01 ?
Sapphire 18 Sep 19:34:25 19:37:51 17° 28° (NNE) 19:41:16 437.095 MHz 1200 baud AX-25 AFSK
Saudisat 1A 18 Sep 19:52:01 19:55:43 25° 324° (NW) 19:59:26 436.775 MHz
